[[{"header":{"parameterUnit":"m.s-1","parameterCategory":1,"la1":30.2991,"la2":30.254,"lo1":-89.0895,"lo2":-89.0444,"dy":0.0017,"dx":0.0017,"nx":28,"ny":28,"refTime":"2025-05-18T03:00:00:Z","depth":0,"parameterNumber":2,"parameterNumberName":"U-component_of_WINDS"},"data":[0,0,0,0,0,0,0,0,0,0,0,0,0,0,0,0,0,0,0,0,0,0,0,0,0,0,0,0,0,0,0,0,0,0,0,0,0,0,0,0,0,0,0,0,0,0,0,0,0,0,0,0,0,0,0,0,0,0,0.0701,0.0702,0,0.0756,0.0756,0.0757,0.0735,0.0733,0.0732,0.0731,0.0794,0.0797,0.08,0,0,0,0,0,0,0,0,0,0,0,0,0,0.0584,0.0586,0.0701,0.0702,0.0702,0.0756,0.0756,0.0757,0.0735,0.0733,0.0732,0.073,0.0794,0.0797,0.08,0,0,0,0,0,0,0,0,0,0,0,0,0,0.0636,0.0587,0.0701,0.0698,0.0698,0.0755,0.0756,0.0757,0.0735,0.0733,0.0731,0.0729,0.0792,0.0797,0.0801,0.0867,0,0,0.0814,0.0816,0,0,0,0,0,0,0,0,0.0633,0.0641,0.0697,0.0698,0.0698,0.0736,0.0738,0.0795,0.0736,0.0721,0.0731,0.0729,0.0777,0.0783,0.0798,0.087,0.0873,0.0815,0.0817,0.0819,0.0821,0,0,0,0,0,0,0,0.063,0.0638,0.0723,0.0698,0.0699,0.0695,0.0701,0.0749,0.076,0.0722,0.0721,0.0727,0.0777,0.0793,0.0799,0.0874,0.0815,0.0819,0.0821,0.0823,0.1003,0.1005,0,0,0,0,0,0,0.0625,0.0635,0.0721,0.0725,0.066,0.0699,0.0705,0.0726,0.0759,0.0762,0.0729,0.0726,0.0787,0.0794,0.0801,0.088,0.0819,0.0823,0.0826,0.1001,0.1004,0.1006,0,0,0,0,0,0,0.0623,0.0633,0.0719,0.0679,0.069,0.0703,0.0727,0.0728,0.0744,0.0764,0.0767,0.0743,0.0786,0.0795,0.085,0.0882,0.0825,0.0829,0.0998,0.1002,0.1005,0.104,0,0,0,0,0,0,0.0619,0.0632,0.0656,0.068,0.0692,0.0766,0.0729,0.0731,0.0751,0.0748,0.0778,0.0781,0.0785,0.0844,0.0855,0.0887,0.0833,0.0996,0.1,0.1004,0.1036,0.1044,0.105,0,0,0,0,0,0.0615,0.0666,0.0658,0.0668,0.0722,0.0768,0.0775,0.0776,0.0754,0.0779,0.0791,0.078,0.0876,0.085,0.0862,0.0896,0.0994,0.0999,0.1003,0.1032,0.1042,0.105,0,0,0,0,0,0,0.0649,0.0669,0.066,0.072,0.0742,0.0764,0.0796,0.0786,0.0817,0.0813,0.0815,0.0822,0.0879,0.0893,0.0863,0.0961,0.0932,0.094,0.095,0.0959,0.0967,0.0962,0.0836,0,0,0,0,0,0.0663,0.0696,0.0712,0.0763,0.0774,0.0783,0.0803,0.0801,0.0825,0.0835,0.0852,0.0877,0.0913,0.0937,0.0971,0.1037,0.1044,0.1067,0.1074,0.108,0.1087,0.1122,0.1132,0.1022,0.1022,0.1022,0,0,0.0693,0.0708,0.0729,0.077,0.0787,0.0823,0.0791,0.0831,0.0857,0.0842,0.0894,0.0907,0.0936,0.0996,0.1024,0.101,0.1118,0.1086,0.1091,0.1094,0.1128,0.1138,0.1148,0.1025,0.1024,0.1024,0,0,0.0766,0.078,0.0823,0.084,0.0864,0.0869,0.088,0.0903,0.091,0.0961,0.095,0.0983,0.1045,0.1065,0.1084,0.1161,0.1153,0.1173,0.1212,0.1246,0.1255,0.1263,0.129,0.13,0.1179,0.118,0.118,0,0.0801,0.0852,0.0848,0.0887,0.0906,0.089,0.0934,0.0951,0.0987,0.1001,0.0984,0.106,0.1079,0.1143,0.1161,0.1177,0.119,0.117,0.1253,0.1261,0.1268,0.1295,0.1305,0.1182,0.1182,0.1181,0.1181,0,0.0893,0.0929,0.0961,0.0992,0.1015,0.1057,0.106,0.1084,0.108,0.1087,0.114,0.116,0.1198,0.1213,0.1211,0.1277,0.1268,0.1252,0.1223,0.1281,0.1306,0.1316,0.1185,0.1184,0.1184,0.1183,0,0,0.0991,0.1017,0.1029,0.1042,0.1067,0.1095,0.1137,0.117,0.119,0.1215,0.125,0.1302,0.1287,0.1308,0.1307,0.1337,0.1397,0.1318,0.1319,0.1332,0.1471,0.1483,0.1495,0.1391,0.1393,0.1394,0.1469,0,0.1066,0.1135,0.1132,0.1198,0.123,0.1214,0.125,0.127,0.1278,0.1308,0.1317,0.1353,0.1331,0.1343,0.1372,0.1384,0.1425,0.1378,0.1425,0.1427,0.1419,0.1508,0.1521,0.159,0.1479,0.148,0.1481,0,0.1162,0.1186,0.1254,0.1272,0.1286,0.1318,0.1348,0.1376,0.1399,0.1402,0.1424,0.1418,0.1462,0.143,0.149,0.1458,0.1477,0.1486,0.1489,0.1494,0.1458,0.1516,0.1613,0.1623,0.1497,0.1496,0.1495,0,0.1226,0.1276,0.1323,0.1335,0.1357,0.138,0.1391,0.1411,0.1431,0.1458,0.1471,0.1503,0.1521,0.1547,0.1551,0.1528,0.1612,0.158,0.1617,0.1617,0.1636,0.1635,0.1738,0.1648,0.1647,0.1647,0.1647,0,0.131,0.1352,0.1351,0.138,0.1427,0.1424,0.1471,0.148,0.1498,0.1529,0.1518,0.1549,0.1551,0.1583,0.1587,0.1636,0.1644,0.1649,0.165,0.165,0.165,0.1664,0.1659,0.165,0.1649,0.1649,0.1648,0,0.139,0.1391,0.1441,0.1456,0.1461,0.1495,0.151,0.1538,0.1543,0.1583,0.1592,0.1602,0.1638,0.1644,0.1688,0.169,0.1749,0.1744,0.174,0.174,0.1776,0.1772,0.1892,0.1907,0.1806,0.1807,0.1808,0,0.1443,0.1475,0.1493,0.1511,0.1523,0.1554,0.1573,0.157,0.1591,0.1618,0.1643,0.1677,0.1705,0.1764,0.1776,0.181,0.1806,0.1846,0.1812,0.1811,0.1807,0.1805,0.1808,0.1853,0.1854,0.1855,0.1855,0,0.1538,0.1536,0.1563,0.1589,0.1611,0.1633,0.1653,0.167,0.167,0.1694,0.173,0.1751,0.1793,0.1828,0.1861,0.1874,0.1866,0.1865,0.1876,0.1877,0.1873,0.1876,0.1759,0.1863,0.1862,0.1862,0.1861,0.1861,0.1606,0.1633,0.1649,0.1679,0.1693,0.1712,0.1738,0.1745,0.1774,0.1806,0.1804,0.1843,0.1864,0.1906,0.1921,0.1953,0.1941,0.1955,0.1959,0.1963,0.1966,0.1867,0.1959,0.1959,0.1959,0.1959,0.1958,0,0.17,0.1709,0.1736,0.1763,0.1786,0.1772,0.1794,0.1815,0.1848,0.1867,0.1894,0.1934,0.1967,0.1981,0.2014,0.2037,0.2033,0.2045,0.2044,0.2047,0.1976,0.1963,0.2047,0.2047,0.2047,0.2047,0.2047,0.2047,0.1752,0.1796,0.1796,0.1847,0.1856,0.1892,0.1905,0.1923,0.1937,0.1982,0.2008,0.2016,0.2033,0.2066,0.2097,0.21,0.2113,0.2127,0.2128,0.2062,0.2053,0.2044,0.2032,0.2129,0.213,0.2197,0.2198,0.2198]},{"header":{"parameterUnit":"m.s-1","parameterCategory":1,"la1":30.2991,"la2":30.254,"lo1":-89.0895,"lo2":-89.0444,"dy":0.0017,"dx":0.0017,"nx":28,"ny":28,"refTime":"2025-05-18T03:00:00:Z","depth":0,"parameterNumber":3,"parameterNumberName":"V-component_of_WINDS"},"data":[0,0,0,0,0,0,0,0,0,0,0,0,0,0,0,0,0,0,0,0,0,0,0,0,0,0,0,0,0,0,0,0,0,0,0,0,0,0,0,0,0,0,0,0,0,0,0,0,0,0,0,0,0,0,0,0,0,0,4.2973,4.2974,0,4.3022,4.3022,4.3023,4.297,4.2968,4.2966,4.2964,4.3007,4.301,4.3013,0,0,0,0,0,0,0,0,0,0,0,0,0,4.2827,4.283,4.2973,4.2974,4.2974,4.3022,4.3022,4.3023,4.297,4.2968,4.2965,4.2963,4.3006,4.301,4.3013,0,0,0,0,0,0,0,0,0,0,0,0,0,4.2885,4.2831,4.2973,4.2954,4.2953,4.3021,4.3022,4.3023,4.297,4.2967,4.2964,4.2962,4.3005,4.3009,4.3014,4.3102,0,0,4.3028,4.303,0,0,0,0,0,0,0,0,4.2881,4.289,4.2956,4.2955,4.2954,4.2987,4.2987,4.3049,4.2971,4.2963,4.2964,4.296,4.3002,4.3007,4.3022,4.3104,4.3106,4.3028,4.3031,4.3033,4.3034,0,0,0,0,0,0,0,4.2878,4.2888,4.2992,4.2957,4.2956,4.294,4.2945,4.2998,4.2999,4.2964,4.296,4.2967,4.3001,4.3018,4.3023,4.3107,4.3028,4.3032,4.3035,4.3037,4.3262,4.3265,0,0,0,0,0,0,4.2877,4.2885,4.299,4.2993,4.291,4.2945,4.2951,4.2979,4.2998,4.2998,4.297,4.2964,4.3012,4.3018,4.3024,4.3128,4.3033,4.3037,4.304,4.3259,4.3263,4.3266,0,0,0,0,0,0,4.2874,4.2887,4.2989,4.2938,4.295,4.2951,4.2983,4.2982,4.2999,4.3003,4.3002,4.2987,4.301,4.3018,4.3083,4.3129,4.3039,4.3043,4.3255,4.326,4.3264,4.3338,0,0,0,0,0,0,4.287,4.2886,4.2921,4.2939,4.2953,4.3049,4.2986,4.2985,4.3007,4.3001,4.3019,4.3019,4.3008,4.3077,4.3088,4.3134,4.3047,4.3251,4.3257,4.3263,4.3331,4.3345,4.3356,0,0,0,0,0,4.2865,4.2939,4.2923,4.2936,4.2997,4.3052,4.3059,4.3047,4.3011,4.3046,4.3048,4.3019,4.3123,4.3084,4.3096,4.3144,4.3248,4.3255,4.3262,4.3326,4.3342,4.3356,0,0,0,0,0,0,4.2923,4.2941,4.2924,4.3006,4.3028,4.3043,4.3086,4.3065,4.3095,4.3088,4.3069,4.3074,4.3143,4.315,4.3107,4.323,4.3179,4.3189,4.3223,4.3239,4.3251,4.3247,4.3051,0,0,0,0,0,4.2947,4.2992,4.3003,4.3075,4.3087,4.3085,4.3108,4.3097,4.3118,4.3126,4.3133,4.3153,4.319,4.3214,4.3249,4.3332,4.3334,4.3371,4.3383,4.3393,4.3402,4.3446,4.3462,4.329,4.329,4.329,0,0,4.2993,4.3008,4.3038,4.3087,4.3103,4.3147,4.3093,4.3143,4.3175,4.3133,4.3196,4.3202,4.3222,4.3297,4.333,4.3305,4.345,4.3403,4.3411,4.3414,4.3455,4.3471,4.3486,4.3295,4.3294,4.3294,0,0,4.3102,4.3119,4.318,4.3197,4.3223,4.3221,4.3235,4.3253,4.3256,4.332,4.3289,4.3326,4.339,4.3406,4.3423,4.3537,4.3511,4.3549,4.3613,4.3656,4.3669,4.3681,4.3722,4.3736,4.3558,4.3558,4.3558,0,4.3157,4.3226,4.3213,4.3266,4.3288,4.3254,4.3314,4.3331,4.3365,4.338,4.3351,4.3432,4.3443,4.3521,4.3549,4.3564,4.3578,4.3547,4.3669,4.3681,4.3691,4.373,4.3745,4.3562,4.3562,4.3561,4.3561,0,4.3291,4.3339,4.3385,4.3422,4.3449,4.3505,4.3499,4.3527,4.3513,4.3514,4.3578,4.359,4.3627,4.3644,4.363,4.372,4.3703,4.3672,4.3621,4.3713,4.3748,4.3763,4.3568,4.3567,4.3566,4.3564,0,0,4.3438,4.3468,4.3485,4.3501,4.3526,4.3562,4.3615,4.3653,4.3677,4.3701,4.3745,4.38,4.3772,4.3791,4.3778,4.3816,4.3905,4.378,4.378,4.3803,4.4004,4.4027,4.4044,4.3888,4.3891,4.3893,4.4002,0,4.3547,4.3643,4.3634,4.3724,4.3767,4.3735,4.3782,4.3801,4.3803,4.3838,4.3839,4.3879,4.3838,4.385,4.3885,4.3887,4.3945,4.3879,4.3927,4.3929,4.3923,4.4062,4.4087,4.4189,4.4015,4.4018,4.402,0,4.3687,4.3719,4.3815,4.3833,4.3851,4.3894,4.3927,4.3962,4.3982,4.398,4.4002,4.3983,4.4034,4.3983,4.4053,4.4008,4.4027,4.403,4.4034,4.4037,4.398,4.4069,4.4221,4.4236,4.4041,4.404,4.4038,0,4.3784,4.3851,4.3916,4.3931,4.3954,4.3985,4.3995,4.4013,4.4036,4.4064,4.4079,4.4112,4.413,4.4155,4.4145,4.4108,4.4217,4.4164,4.4215,4.4216,4.424,4.4238,4.4396,4.4253,4.4252,4.4252,4.4252,0,4.3907,4.3966,4.396,4.4001,4.4066,4.4053,4.4117,4.4123,4.4139,4.4179,4.4152,4.4189,4.4174,4.4209,4.4201,4.426,4.4268,4.4267,4.4264,4.4269,4.427,4.4281,4.4273,4.4256,4.4255,4.4254,4.4254,0,4.4026,4.4025,4.4094,4.4111,4.4117,4.4164,4.4177,4.4214,4.4214,4.4264,4.4275,4.4274,4.4314,4.4306,4.435,4.4344,4.4418,4.4407,4.4412,4.4409,4.4461,4.4456,4.4632,4.4654,4.4497,4.4498,4.4499,0,4.4104,4.4149,4.4172,4.4198,4.4211,4.4252,4.4276,4.4265,4.429,4.4317,4.435,4.4389,4.4419,4.4485,4.4486,4.4519,4.4508,4.4567,4.4513,4.4517,4.4508,4.4506,4.451,4.4578,4.458,4.4581,4.4582,0,4.4242,4.424,4.4277,4.4313,4.4343,4.4371,4.4395,4.4417,4.4408,4.4437,4.448,4.4503,4.4549,4.4587,4.4618,4.4626,4.4602,4.46,4.4613,4.4619,4.462,4.462,4.4441,4.4596,4.4594,4.4593,4.4593,4.4592,4.4343,4.4382,4.4404,4.4445,4.4463,4.4487,4.4523,4.4528,4.4564,4.4601,4.4592,4.4639,4.4657,4.4697,4.4709,4.4744,4.4722,4.4742,4.4747,4.4752,4.4758,4.4615,4.475,4.4749,4.4749,4.4749,4.4748,0,4.448,4.4493,4.4531,4.4568,4.46,4.4577,4.4603,4.4631,4.4674,4.4694,4.4725,4.4773,4.481,4.4815,4.4849,4.4876,4.4866,4.4886,4.4883,4.4885,4.4776,4.4761,4.4893,4.4893,4.4893,4.4893,4.4893,4.4893,4.4555,4.4619,4.4619,4.4691,4.4703,4.4751,4.4768,4.4789,4.4805,4.4861,4.4892,4.4896,4.4909,4.4944,4.4976,4.4976,4.499,4.5014,4.501,4.4907,4.4893,4.4879,4.4865,4.5017,4.5017,4.5116,4.5117,4.5117]}]]